Time,TemperatureF,DewpointF,PressureIn,WindDirection,WindDirectionDegrees,WindSpeedMPH,WindSpeedGustMPH,Humidity,HourlyPrecipIn,Conditions,Clouds,dailyrainin,SoftwareType,DateUTC
2013-02-21 00:02:00,29.0,21.0,30.16,NNW,338,0.0,1.0,72,0.00,,,0.00,,2013-02-21 05:02:00,
2013-02-21 00:22:00,28.0,20.0,30.16,NNW,338,0.0,0.0,70,0.00,,,0.00,,2013-02-21 05:22:00,
2013-02-21 00:35:00,29.0,21.0,30.16,NNW,338,0.0,0.0,73,0.00,,,0.00,,2013-02-21 05:35:00,
2013-02-21 01:01:00,28.0,20.0,30.16,NNW,338,0.0,1.0,72,0.00,,,0.00,,2013-02-21 06:01:00,
2013-02-21 01:21:00,27.0,20.0,30.17,NNW,338,0.0,1.0,76,0.00,,,0.00,,2013-02-21 06:21:00,
2013-02-21 01:31:00,27.0,20.0,30.17,NNW,338,0.0,0.0,75,0.00,,,0.00,,2013-02-21 06:31:00,
2013-02-21 01:52:00,27.0,21.0,30.17,NNW,338,0.0,0.0,77,0.00,,,0.00,,2013-02-21 06:52:00,
2013-02-21 02:01:00,26.0,20.0,30.17,NNW,338,0.0,0.0,77,0.00,,,0.00,,2013-02-21 07:01:00,
2013-02-21 02:11:00,26.0,20.0,30.17,NNW,338,0.0,1.0,77,0.00,,,0.00,,2013-02-21 07:11:00,
2013-02-21 02:21:00,26.0,20.0,30.17,NNW,338,0.0,1.0,77,0.00,,,0.00,,2013-02-21 07:21:00,
2013-02-21 02:32:00,26.0,19.0,30.17,NNW,338,0.0,1.0,76,0.00,,,0.00,,2013-02-21 07:32:00,
2013-02-21 02:42:00,25.0,19.0,30.18,NNW,338,0.0,1.0,79,0.00,,,0.00,,2013-02-21 07:42:00,
2013-02-21 02:52:00,25.0,19.0,30.18,NNW,338,0.0,1.0,79,0.00,,,0.00,,2013-02-21 07:52:00,
2013-02-21 03:01:00,25.0,19.0,30.18,NNW,338,0.0,1.0,79,0.00,,,0.00,,2013-02-21 08:01:00,
2013-02-21 03:21:00,25.0,20.0,30.19,NNW,338,0.0,1.0,82,0.00,,,0.00,,2013-02-21 08:21:00,
2013-02-21 03:32:00,25.0,19.0,30.18,NNW,338,0.0,0.0,78,0.00,,,0.00,,2013-02-21 08:32:00,
2013-02-21 03:42:00,25.0,19.0,30.18,NNW,338,0.0,0.0,78,0.00,,,0.00,,2013-02-21 08:42:00,
2013-02-21 03:52:00,25.0,20.0,30.19,NNW,338,0.0,0.0,81,0.00,,,0.00,,2013-02-21 08:52:00,
2013-02-21 04:01:00,24.0,19.0,30.19,NNW,338,0.0,1.0,81,0.00,,,0.00,,2013-02-21 09:01:00,
2013-02-21 04:11:00,24.0,19.0,30.19,NNW,338,0.0,1.0,81,0.00,,,0.00,,2013-02-21 09:11:00,
2013-02-21 04:22:00,24.0,19.0,30.19,NNW,338,0.0,0.0,81,0.00,,,0.00,,2013-02-21 09:22:00,
2013-02-21 04:32:00,24.0,19.0,30.19,NNW,338,0.0,0.0,80,0.00,,,0.00,,2013-02-21 09:32:00,
2013-02-21 04:42:00,24.0,19.0,30.19,NNW,338,0.0,0.0,80,0.00,,,0.00,,2013-02-21 09:42:00,
2013-02-21 04:52:00,24.0,20.0,30.19,NNW,338,0.0,1.0,83,0.00,,,0.00,,2013-02-21 09:52:00,
2013-02-21 05:01:00,24.0,20.0,30.20,NNW,338,0.0,0.0,83,0.00,,,0.00,,2013-02-21 10:01:00,
2013-02-21 05:11:00,24.0,20.0,30.20,NNW,338,0.0,0.0,83,0.00,,,0.00,,2013-02-21 10:11:00,
2013-02-21 05:21:00,23.0,19.0,30.20,NNW,338,0.0,0.0,84,0.00,,,0.00,,2013-02-21 10:21:00,
2013-02-21 05:31:00,23.0,19.0,30.19,NNW,338,0.0,1.0,85,0.00,,,0.00,,2013-02-21 10:31:00,
2013-02-21 05:41:00,23.0,19.0,30.19,NNW,338,0.0,1.0,85,0.00,,,0.00,,2013-02-21 10:41:00,
2013-02-21 05:51:00,23.0,19.0,30.19,NNW,338,0.0,0.0,85,0.00,,,0.00,,2013-02-21 10:51:00,
2013-02-21 06:01:00,23.0,19.0,30.21,NNW,338,0.0,1.0,85,0.00,,,0.00,,2013-02-21 11:01:00,
2013-02-21 06:11:00,23.0,19.0,30.21,NNW,338,0.0,1.0,85,0.00,,,0.00,,2013-02-21 11:11:00,
2013-02-21 06:21:00,22.0,19.0,30.22,NNW,338,0.0,1.0,87,0.00,,,0.00,,2013-02-21 11:21:00,
2013-02-21 06:31:00,22.0,19.0,30.22,NNW,338,0.0,0.0,87,0.00,,,0.00,,2013-02-21 11:31:00,
2013-02-21 06:41:00,22.0,19.0,30.22,NNW,338,0.0,0.0,87,0.00,,,0.00,,2013-02-21 11:41:00,
2013-02-21 06:52:00,22.0,19.0,30.23,NNW,338,0.0,0.0,87,0.00,,,0.00,,2013-02-21 11:52:00,
2013-02-21 07:01:00,22.0,19.0,30.23,NNW,338,0.0,1.0,87,0.00,,,0.00,,2013-02-21 12:01:00,
2013-02-21 07:11:00,22.0,19.0,30.23,NNW,338,0.0,1.0,87,0.00,,,0.00,,2013-02-21 12:11:00,
2013-02-21 07:22:00,22.0,19.0,30.23,NNW,338,0.0,0.0,87,0.00,,,0.00,,2013-02-21 12:22:00,
2013-02-21 07:32:00,22.0,19.0,30.24,NNW,338,0.0,1.0,87,0.00,,,0.00,,2013-02-21 12:32:00,
2013-02-21 07:42:00,22.0,19.0,30.24,NNW,338,0.0,1.0,87,0.00,,,0.00,,2013-02-21 12:42:00,
2013-02-21 07:53:00,22.0,19.0,30.25,NNW,338,0.0,1.0,88,0.00,,,0.00,,2013-02-21 12:53:00,
2013-02-21 08:02:00,22.0,19.0,30.26,NNW,338,0.0,0.0,89,0.00,,,0.00,,2013-02-21 13:02:00,
2013-02-21 08:12:00,22.0,19.0,30.26,NNW,338,0.0,0.0,89,0.00,,,0.00,,2013-02-21 13:12:00,
2013-02-21 08:22:00,23.0,20.0,30.25,NNW,338,0.0,0.0,89,0.00,,,0.00,,2013-02-21 13:22:00,
2013-02-21 08:32:00,25.0,22.0,30.26,NNW,338,0.0,0.0,88,0.00,,,0.00,,2013-02-21 13:32:00,
2013-02-21 08:42:00,25.0,22.0,30.26,NNW,338,0.0,0.0,88,0.00,,,0.00,,2013-02-21 13:42:00,
2013-02-21 08:51:00,28.0,24.0,30.26,NNW,338,0.0,0.0,83,0.00,,,0.00,,2013-02-21 13:51:00,
2013-02-21 09:02:00,30.0,25.0,30.26,NNW,338,0.0,1.0,80,0.00,,,0.00,,2013-02-21 14:02:00,
2013-02-21 09:22:00,33.0,25.0,30.26,NNW,338,0.0,0.0,72,0.00,,,0.00,,2013-02-21 14:22:00,
2013-02-21 09:32:00,35.0,22.0,30.26,NNW,338,0.0,2.0,59,0.00,,,0.00,,2013-02-21 14:32:00,
2013-02-21 09:42:00,35.0,22.0,30.26,NNW,338,0.0,2.0,59,0.00,,,0.00,,2013-02-21 14:42:00,
2013-02-21 09:52:00,38.0,22.0,30.27,NNW,338,0.0,2.0,52,0.00,,,0.00,,2013-02-21 14:52:00,
2013-02-21 10:02:00,39.0,21.0,30.26,SSE,163,1.0,4.0,48,0.00,,,0.00,,2013-02-21 15:02:00,
2013-02-21 10:12:00,39.0,21.0,30.26,SSE,163,1.0,4.0,48,0.00,,,0.00,,2013-02-21 15:12:00,
2013-02-21 10:21:00,41.0,19.0,30.26,SSE,163,2.0,4.0,41,0.00,,,0.00,,2013-02-21 15:21:00,
2013-02-21 10:32:00,42.0,20.0,30.26,WNW,284,1.0,3.0,41,0.00,,,0.00,,2013-02-21 15:32:00,
2013-02-21 10:42:00,42.0,20.0,30.26,WNW,284,1.0,3.0,41,0.00,,,0.00,,2013-02-21 15:42:00,
2013-02-21 10:52:00,43.0,20.0,30.26,SSW,205,3.0,9.0,39,0.00,,,0.00,,2013-02-21 15:52:00,
2013-02-21 11:01:00,44.0,19.0,30.26,SSW,194,3.0,5.0,36,0.00,,,0.00,,2013-02-21 16:01:00,
2013-02-21 11:12:00,46.0,21.0,30.25,SSE,159,0.0,7.0,36,0.00,,,0.00,,2013-02-21 16:12:00,
2013-02-21 11:22:00,46.0,21.0,30.25,SSE,159,0.0,7.0,36,0.00,,,0.00,,2013-02-21 16:22:00,
2013-02-21 11:32:00,47.0,21.0,30.24,SW,215,1.0,4.0,35,0.00,,,0.00,,2013-02-21 16:32:00,
2013-02-21 11:42:00,47.0,19.0,30.24,North,10,1.0,4.0,33,0.00,,,0.00,,2013-02-21 16:42:00,
2013-02-21 11:52:00,47.0,19.0,30.24,North,10,1.0,4.0,33,0.00,,,0.00,,2013-02-21 16:52:00,
2013-02-21 12:01:00,48.0,20.0,30.24,SE,142,3.0,6.0,33,0.00,,,0.00,,2013-02-21 17:01:00,
2013-02-21 12:11:00,48.0,20.0,30.24,SE,142,3.0,6.0,33,0.00,,,0.00,,2013-02-21 17:11:00,
2013-02-21 12:21:00,50.0,21.0,30.22,SSE,153,4.0,8.0,32,0.00,,,0.00,,2013-02-21 17:21:00,
2013-02-21 12:32:00,51.0,20.0,30.21,SSW,200,3.0,7.0,29,0.00,,,0.00,,2013-02-21 17:32:00,
2013-02-21 12:42:00,51.0,20.0,30.21,SSW,200,3.0,7.0,29,0.00,,,0.00,,2013-02-21 17:42:00,
2013-02-21 12:52:00,51.0,18.0,30.20,SSW,211,4.0,10.0,27,0.00,,,0.00,,2013-02-21 17:52:00,
2013-02-21 13:02:00,52.0,20.0,30.19,SW,219,2.0,7.0,28,0.00,,,0.00,,2013-02-21 18:02:00,
2013-02-21 13:12:00,52.0,20.0,30.19,SW,219,2.0,7.0,28,0.00,,,0.00,,2013-02-21 18:12:00,
2013-02-21 13:22:00,53.0,21.0,30.17,SSE,168,1.0,11.0,28,0.00,,,0.00,,2013-02-21 18:22:00,
2013-02-21 13:32:00,54.0,22.0,30.16,SW,233,1.0,5.0,28,0.00,,,0.00,,2013-02-21 18:32:00,
2013-02-21 13:52:00,55.0,22.0,30.15,SE,129,1.0,6.0,27,0.00,,,0.00,,2013-02-21 18:52:00,
2013-02-21 14:01:00,56.0,23.0,30.15,South,171,3.0,8.0,27,0.00,,,0.00,,2013-02-21 19:01:00,
2013-02-21 14:21:00,56.0,22.0,30.14,SSE,165,5.0,8.0,26,0.00,,,0.00,,2013-02-21 19:21:00,
2013-02-21 14:32:00,56.0,21.0,30.14,SSE,165,5.0,9.0,25,0.00,,,0.00,,2013-02-21 19:32:00,
2013-02-21 14:52:00,57.0,22.0,30.14,SSW,201,5.0,8.0,25,0.00,,,0.00,,2013-02-21 19:52:00,
2013-02-21 15:01:00,57.0,21.0,30.13,South,190,1.0,7.0,24,0.00,,,0.00,,2013-02-21 20:01:00,
2013-02-21 15:11:00,58.0,20.0,30.14,South,191,5.0,10.0,23,0.00,,,0.00,,2013-02-21 20:11:00,
2013-02-21 15:21:00,58.0,20.0,30.14,South,191,5.0,10.0,23,0.00,,,0.00,,2013-02-21 20:21:00,
2013-02-21 15:32:00,58.0,21.0,30.14,South,173,3.0,6.0,24,0.00,,,0.00,,2013-02-21 20:32:00,
2013-02-21 15:42:00,58.0,21.0,30.14,South,173,3.0,6.0,24,0.00,,,0.00,,2013-02-21 20:42:00,
2013-02-21 15:53:00,58.0,25.0,30.14,South,169,2.0,6.0,28,0.00,,,0.00,,2013-02-21 20:53:00,
2013-02-21 16:02:00,58.0,19.0,30.15,SSE,147,2.0,7.0,22,0.00,,,0.00,,2013-02-21 21:02:00,
2013-02-21 16:12:00,57.0,20.0,30.16,SSW,202,6.0,7.0,23,0.00,,,0.00,,2013-02-21 21:12:00,
2013-02-21 16:22:00,57.0,20.0,30.16,SSW,202,6.0,7.0,23,0.00,,,0.00,,2013-02-21 21:22:00,
2013-02-21 16:32:00,57.0,20.0,30.15,South,190,2.0,6.0,23,0.00,,,0.00,,2013-02-21 21:32:00,
2013-02-21 16:42:00,57.0,22.0,30.14,SSE,151,3.0,6.0,25,0.00,,,0.00,,2013-02-21 21:42:00,
2013-02-21 16:52:00,57.0,22.0,30.14,SSE,151,3.0,6.0,25,0.00,,,0.00,,2013-02-21 21:52:00,
2013-02-21 17:01:00,57.0,23.0,30.14,South,173,2.0,6.0,27,0.00,,,0.00,,2013-02-21 22:01:00,
2013-02-21 17:21:00,56.0,22.0,30.15,South,175,2.0,4.0,26,0.00,,,0.00,,2013-02-21 22:21:00,
2013-02-21 17:32:00,56.0,23.0,30.15,South,186,2.0,4.0,27,0.00,,,0.00,,2013-02-21 22:32:00,
2013-02-21 17:52:00,55.0,25.0,30.14,South,186,0.0,2.0,31,0.00,,,0.00,,2013-02-21 22:52:00,
2013-02-21 18:01:00,55.0,23.0,30.16,South,186,0.0,0.0,28,0.00,,,0.00,,2013-02-21 23:01:00,
2013-02-21 18:21:00,54.0,24.0,30.17,South,186,0.0,0.0,31,0.00,,,0.00,,2013-02-21 23:21:00,
2013-02-21 18:32:00,53.0,25.0,30.16,South,186,0.0,0.0,33,0.00,,,0.00,,2013-02-21 23:32:00,
2013-02-21 18:52:00,51.0,24.0,30.18,South,186,0.0,0.0,34,0.00,,,0.00,,2013-02-21 23:52:00,
2013-02-21 19:01:00,50.0,26.0,30.18,South,186,0.0,0.0,39,0.00,,,0.00,,2013-02-22 00:01:00,
2013-02-21 19:22:00,49.0,29.0,30.16,ENE,74,0.0,0.0,45,0.00,,,0.00,,2013-02-22 00:22:00,
2013-02-21 19:32:00,48.0,29.0,30.16,ENE,74,1.0,1.0,47,0.00,,,0.00,,2013-02-22 00:32:00,
2013-02-21 19:52:00,48.0,27.0,30.18,ENE,74,0.0,0.0,43,0.00,,,0.00,,2013-02-22 00:52:00,
2013-02-21 20:01:00,47.0,29.0,30.18,ENE,74,0.0,1.0,50,0.00,,,0.00,,2013-02-22 01:01:00,
2013-02-21 20:22:00,46.0,28.0,30.18,ENE,74,0.0,1.0,49,0.00,,,0.00,,2013-02-22 01:22:00,
2013-02-21 20:32:00,46.0,28.0,30.19,ENE,74,0.0,1.0,49,0.00,,,0.00,,2013-02-22 01:32:00,
2013-02-21 20:52:00,45.0,30.0,30.19,ENE,74,0.0,0.0,55,0.00,,,0.00,,2013-02-22 01:52:00,
2013-02-21 21:02:00,45.0,31.0,30.19,ENE,74,0.0,0.0,58,0.00,,,0.00,,2013-02-22 02:02:00,
2013-02-21 21:21:00,45.0,32.0,30.19,ENE,74,0.0,0.0,60,0.00,,,0.00,,2013-02-22 02:21:00,
2013-02-21 21:32:00,44.0,29.0,30.20,ENE,74,0.0,1.0,56,0.00,,,0.00,,2013-02-22 02:32:00,
2013-02-21 21:52:00,44.0,29.0,30.22,East,88,0.0,0.0,56,0.00,,,0.00,,2013-02-22 02:52:00,
2013-02-21 22:02:00,44.0,33.0,30.25,East,88,1.0,2.0,64,0.00,,,0.00,,2013-02-22 03:02:00,
2013-02-21 22:21:00,44.0,33.0,30.27,SW,215,1.0,2.0,66,0.00,,,0.00,,2013-02-22 03:21:00,
2013-02-21 22:32:00,44.0,33.0,30.27,SW,215,0.0,1.0,65,0.00,,,0.00,,2013-02-22 03:32:00,
2013-02-21 22:52:00,43.0,36.0,30.24,SW,215,0.0,1.0,77,0.00,,,0.00,,2013-02-22 03:52:00,
2013-02-21 23:02:00,42.0,35.0,30.24,SW,215,1.0,1.0,75,0.00,,,0.00,,2013-02-22 04:02:00,
2013-02-21 23:21:00,42.0,38.0,30.27,SW,215,0.0,1.0,86,0.01,,,0.01,,2013-02-22 04:21:00,
2013-02-21 23:32:00,41.0,38.0,30.28,SW,215,0.0,2.0,88,0.02,,,0.02,,2013-02-22 04:32:00,
2013-02-21 23:52:00,40.0,38.0,30.30,West,269,0.0,3.0,92,0.04,,,0.04,,2013-02-22 04:52:00,